Content
SEND FEEDBACK

Daily
Averages
Monthly
Summary
United States of America

ACHANG BAY, GUAM


Home > North America > United States > Guam
Elevation: 30 feet     Latitude: 13 16N     Longitude: 144 45E

WEATHER
 
SELECT A DAY
Number of Records: 341,524;   Date Range: 1/1/95 - 7/7/14
 
SHARE

PRINT THIS DATA

[ ← Previous Day ]
WEATHER ALMANAC - FEBRUARY 12, 2014
[ Next Day → ]
[ °C ]   °F
Weather ElementAverageHighLow
Temperature78.4 °F82.6 °F (11:58 am)72.7 °F (6:58 am)
Dewpoint73.2 °F75.2 °F (8:35 pm)70.2 °F (6:58 am)
Humidity84.2 %94 % (8:35 pm)72 % (11:58 am)
Barometer29.83 in29.88 in (10:18 am)29.76 in (2:58 am)
Wind Speed7.2 mph11.5 mph (2:43 pm)
Weather ElementAverage
Visibility10 mi
Wind DirectionENE (78.4 °)

Weather ElementTotal
Precipitation---
Cooling Degree Days12.7 (Base 65)
Growing Degree Days27.7 (Base 50)
Averaged from 43 records on February 12, 2014
WEATHER CONDITIONS BREAKOUT
WIND DIRECTION BREAKOUT
WEATHER BY HOUR - FEBRUARY 12, 2014
[ °C ]   °F
Local TimeTemperatureDewpointHumidityBarometerVisibilityWind DirectionWind SpeedGust SpeedPrecipitationEventsConditions
1:58 AM74.7 °F72.1 °F92 %29.77 in10.0 miEast (90°)5.8 mphPartly Cloudy
2:58 AM74.5 °F71.6 °F91 %29.76 in10.0 miEast (100°)4.6 mphClear
3:58 AM73.6 °F70.3 °F90 %29.76 in10.0 miEast (100°)4.6 mphClear
4:58 AM73.6 °F71.2 °F92 %29.78 in10.0 miEast (90°)3.5 mphClear
5:58 AM74.3 °F72.1 °F93 %29.79 in10.0 miESE (110°)3.5 mphPartly Cloudy
6:58 AM72.7 °F70.2 °F92 %29.81 in10.0 miEast (90°)3.5 mphClear
7:58 AM76.3 °F73.8 °F92 %29.82 in10.0 miEast (90°)4.6 mphScattered Clouds
8:18 AM78.8 °F73.4 °F83 %29.86 in10.0 miEast (90°)5.8 mphMostly Cloudy
8:28 AM78.8 °F71.6 °F78 %29.86 in10.0 miEast (100°)5.8 mphScattered Clouds
8:58 AM79.9 °F72.3 °F78 %29.84 in10.0 miEast (80°)9.2 mphClear
9:58 AM81.0 °F73.0 °F77 %29.86 in10.0 miEast (100°)8.1 mphScattered Clouds
10:13 AM82.4 °F73.4 °F74 %29.87 in10.0 miESE (110°)10.4 mphMostly Cloudy
10:18 AM82.4 °F73.4 °F74 %29.88 in10.0 miEast (90°)9.2 mphScattered Clouds
10:58 AM81.9 °F72.7 °F74 %29.84 in10.0 miEast (90°)8.1 mphClear
11:58 AM82.6 °F72.7 °F72 %29.82 in10.0 miEast (100°)5.8 mphPartly Cloudy
12:58 PM82.0 °F72.9 °F74 %29.81 in10.0 miVariable6.9 mphScattered Clouds
1:58 PM81.7 °F71.8 °F72 %29.78 in10.0 miNE (50°)8.1 mphScattered Clouds
2:43 PM82.4 °F73.4 °F74 %29.80 in10.0 miENE (70°)11.5 mphMostly Cloudy
2:48 PM82.4 °F73.4 °F74 %29.80 in10.0 miENE (70°)9.2 mphScattered Clouds
2:58 PM82.0 °F73.4 °F75 %29.76 in10.0 miEast (100°)8.1 mphScattered Clouds
3:08 PM82.4 °F73.4 °F74 %29.79 in10.0 miEast (90°)8.1 mphMostly Cloudy
3:13 PM82.4 °F73.4 °F74 %29.79 in10.0 miENE (70°)9.2 mphScattered Clouds
3:58 PM81.0 °F73.0 °F77 %29.77 in10.0 miENE (60°)9.2 mphPartly Cloudy
4:58 PM79.5 °F72.7 °F79 %29.78 in10.0 miENE (60°)5.8 mphPartly Cloudy
5:58 PM79.5 °F73.0 °F80 %29.79 in10.0 miENE (60°)5.8 mphMostly Cloudy
6:58 PM77.4 °F73.2 °F87 %29.81 in10.0 miNE (50°)6.9 mphPartly Cloudy
7:48 PM78.8 °F73.4 °F83 %29.86 in10.0 miNE (50°)6.9 mphMostly Cloudy
7:58 PM78.3 °F74.1 °F87 %29.83 in10.0 miNE (50°)8.1 mphMostly Cloudy
8:03 PM77.0 °F73.4 °F89 %29.86 in10.0 miENE (60°)8.1 mphMostly Cloudy
8:35 PM77.0 °F75.2 °F94 %29.87 in10.0 miENE (70°)5.8 mphRainLight Rain
8:53 PM77.0 °F75.2 °F94 %29.87 in10.0 miENE (70°)5.8 mphOvercast
8:58 PM77.5 °F75.2 °F92 %29.84 in10.0 miEast (80°)6.9 mph0.00 inOvercast
9:08 PM77.0 °F75.2 °F94 %29.87 in10.0 miENE (70°)8.1 mphOvercast
9:13 PM77.0 °F75.2 °F94 %29.87 in10.0 miENE (70°)6.9 mphMostly Cloudy
9:28 PM77.0 °F73.4 °F89 %29.87 in10.0 miEast (80°)8.1 mphScattered Clouds
9:38 PM77.0 °F73.4 °F89 %29.88 in10.0 miEast (80°)8.1 mphMostly Cloudy
9:43 PM77.0 °F73.4 °F89 %29.88 in10.0 miEast (80°)6.9 mphScattered Clouds
9:53 PM77.0 °F73.4 °F89 %29.88 in10.0 miEast (80°)8.1 mphMostly Cloudy
9:58 PM77.5 °F74.1 °F89 %29.86 in10.0 miEast (90°)8.1 mphMostly Cloudy
10:03 PM77.0 °F73.4 °F89 %29.87 in10.0 miEast (80°)8.1 mphMostly Cloudy
10:58 PM76.8 °F74.1 °F91 %29.84 in10.0 miEast (80°)9.2 mphScattered Clouds
11:53 PM77.0 °F73.4 °F89 %29.88 in10.0 miEast (80°)8.1 mphMostly Cloudy
11:58 PM77.2 °F73.4 °F88 %29.86 in10.0 miEast (90°)8.1 mphScattered Clouds
Hourly data recorded from PGUA, located miles away from Achang Bay, Guam







STORIES FROM OUR PARTNERS